Home   Weather   Augsburg   Past weeks

Flag for Germany Past Weather in Augsburg, Bavaria, Germany — Yesterday and Last 2 Weeks

Now
11 °F

Low clouds.


Feels Like: 11 °F
Forecast: 7 / 18 °F
Wind: No wind

Location: Augsburg

Current Time: Jan 22, 2017 at 7:19:13 am

Latest Report: Jan 22, 2017 at 6:00 am


Visibility: 0 mi

Pressure: 30.44 "Hg

Humidity: 94%

Dew Point: 10 °F

Location of AugsburgLocation

Past Weather in Augsburg — Graph

°F

Augsburg Temperature Yesterday

Maximum temperature yesterday: 21 °F (at 2:00 pm)
Minimum temperature yesterday: 4 °F (at 6:00 am)
Average temperature yesterday: 11 °F

High & Low Weather Summary for the Past Weeks

 TemperatureHumidityPressure
High41 °F (Jan 13, 3:00 am)100% (Jan 8, 3:00 pm)30.74 "Hg (Jan 8, 3:00 pm)
Low4 °F (Jan 21, 6:00 am)60% (Jan 13, 12:00 pm)29.38 "Hg (Jan 13, 3:00 am)
Average24 °F86%30.27 "Hg
* Reported Jan 7 6:00 am — Jan 22 6:00 am, Augsburg, Weather by CustomWeather, © 2017

Note: Actual official high and low records may vary slightly from our data, if they occured in-between our weather recording intervals... More about our weather records

Advertising

Augsburg Weather History for the Previous 24 Hours

Scroll right to see more
 ConditionsComfort  
Time TempWeatherWind HumidityBarometerVisibility
6:00 am
Sun, Jan 22
11 °FLow clouds.No wind94%30.44 "Hg0 mi
5:00 am11 °FLow clouds.No wind92%30.45 "Hg1 mi
3:00 am6 °FIce fog.No wind96%30.49 "Hg0 mi
2:00 am4 °FPassing clouds.No wind93%30.50 "Hg0 mi
12:00 am5 °FPassing clouds.No wind98%30.52 "Hg0 mi
11:00 pm
Sat, Jan 21
6 °FClear.No wind96%30.51 "Hg0 mi
9:00 pm8 °FClear.No wind95%30.51 "Hg0 mi
8:00 pm8 °FFog.2 mph91%30.51 "Hg1 mi
6:00 pm13 °FFog.1 mph92%30.50 "Hg1 mi
5:00 pm19 °FClear.2 mph79%30.47 "Hg2 mi
3:00 pm21 °FSunny.1 mph73%30.47 "Hg2 mi
2:00 pm21 °FSunny.No wind67%30.47 "Hg2 mi
12:00 pm14 °FPassing clouds.No wind80%30.55 "Hg1 mi
11:00 am12 °FLow clouds.No wind91%30.58 "Hg1 mi
9:00 am9 °FLow clouds.No wind93%30.58 "Hg0 mi
8:00 am9 °FLow clouds.No wind94%30.56 "Hg0 mi
Weather by CustomWeather, © 2017

See weather overviewHow to use our weather pages